Weather History for Marrakech, Morocco

Change the Weather History Date:

Saturday, March 30, 2013

  Actual Average Record
Temperature  
Mean Temperature 69 °F -  
Max Temperature 85 °F 75 °F 93 °F (2005)
Min Temperature 53 °F 52 °F 42 °F (2009)
Cooling Degree Days 4    
Growing Degree Days 19 (Base 50)    
Moisture  
Dew Point 52 °F    
Average Humidity 60    
Maximum Humidity 94    
Minimum Humidity 15    
Precipitation  
Precipitation 0.00 in 0.05 in - ()
Sea Level Pressure  
Sea Level Pressure 30.16 in    
Wind  
Wind Speed 4 mph ()    
Max Wind Speed 10 mph    
Max Gust Speed -    
Visibility 5.9 miles    
Events      
Averages and records for this station are not official NWS values.
T = Trace of Precipitation, MM = Missing Value Source: Averaged Metar Reports

Daily Weather History Graph

Daily Weather History Graph

Search for Another Location

Airport:

Trip Planner

Search our weather history database for the weather conditions in past years. The results will help you decide how hot, cold, wet, or windy it might be!

Date:

Astronomy

Mar. 30, 2013 Rise Set
Actual Time 6:23 AM WET 6:50 PM WET
Civil Twilight 5:58 AM WET 7:14 PM WET
Nautical Twilight 5:30 AM WET 7:43 PM WET
Astronomical Twilight 5:01 AM WET 8:12 PM WET
Moon 10:27 PM WET (3/30) 8:20 AM WET (3/30)
Length of Visible Light 13h 16m
Length of Day
12h 27m
Waning Gibbous, 88% of the Moon is Illuminated
Mar 30
Waning Gibbous
Apr 3
Last Quarter
Apr 10
New
Apr 18
First Quarter
Apr 25
Full

Hourly Weather History & Observations

Time (WET) Temp. Dew Point Humidity Pressure Visibility Wind Dir Wind Speed Gust Speed Precip Events Conditions
12:00 AM 62 °F 56 °F 75% 30.21 in 6 mi WSW 9.2 mph - -   Clear
12:00 AM 62.6 °F 55.4 °F 77% 30.24 in - WSW 9.2 mph - N/A   Clear
12:30 AM 59.0 °F 55.4 °F 88% 30.21 in - West 8.1 mph - N/A   Clear
1:00 AM 59.0 °F 55.4 °F 88% 30.21 in - West 5.8 mph - N/A   Clear
1:30 AM 59.0 °F 55.4 °F 88% 30.21 in - West 4.6 mph - N/A   Clear
2:00 AM 57.2 °F 55.4 °F 94% 30.21 in - West 3.5 mph - N/A   Clear
2:30 AM 59.0 °F 55.4 °F 88% 30.21 in - Calm Calm - N/A   Clear
3:00 AM 57 °F 54 °F 87% 30.19 in 6 mi South 3.5 mph - -  
3:00 AM 57.2 °F 53.6 °F 88% 30.18 in - South 3.5 mph - N/A   Clear
3:30 AM 57.2 °F 53.6 °F 88% 30.18 in - Calm Calm - N/A   Clear
4:00 AM 57.2 °F 53.6 °F 88% 30.18 in - Calm Calm - N/A   Clear
4:30 AM 57.2 °F 53.6 °F 88% 30.18 in 6.2 mi Calm Calm - N/A   Unknown
5:00 AM 55.4 °F 53.6 °F 94% 30.18 in 6.2 mi Calm Calm - N/A   Unknown
5:30 AM 55.4 °F 53.6 °F 94% 30.18 in - Calm Calm - N/A   Clear
6:00 AM 56 °F 53 °F 88% 30.19 in 6 mi Calm Calm - -   Clear
6:00 AM 55.4 °F 51.8 °F 88% 30.18 in - Calm Calm - N/A   Clear
6:30 AM 55.4 °F 51.8 °F 88% 30.21 in - Calm Calm - N/A   Clear
7:00 AM 57.2 °F 51.8 °F 82% 30.21 in - Calm Calm - N/A   Clear
7:30 AM 59.0 °F 53.6 °F 82% 30.21 in - Calm Calm - N/A   Clear
8:00 AM 62.6 °F 53.6 °F 72% 30.21 in - Calm Calm - N/A   Clear
8:30 AM 66.2 °F 55.4 °F 68% 30.21 in - Calm Calm - N/A   Clear
9:00 AM 66 °F 55 °F 60% 30.17 in 5 mi North 3.5 mph - -   Clear
9:00 AM 66.2 °F 55.4 °F 68% 30.18 in 5.0 mi North 3.5 mph - N/A   Unknown
9:30 AM 68.0 °F 55.4 °F 64% 30.21 in 4.3 mi Variable 2.3 mph - N/A   Unknown
10:00 AM 69.8 °F 57.2 °F 64% 30.21 in - Calm Calm - N/A   Clear
10:30 AM 71.6 °F 57.2 °F 60% 30.21 in - Variable 2.3 mph - N/A   Clear
11:00 AM 73.4 °F 55.4 °F 53% 30.21 in - Calm Calm - N/A   Clear
11:30 AM 77.0 °F 57.2 °F 50% 30.21 in - Variable 2.3 mph - N/A   Clear
12:00 PM 79 °F 50 °F 26% 30.11 in 6 mi WSW 3.5 mph - -   Clear
12:00 PM 78.8 °F 51.8 °F 39% 30.18 in - Variable 3.5 mph - N/A   Clear
12:30 PM 80.6 °F 50.0 °F 34% 30.18 in - Variable 2.3 mph - N/A   Clear
1:00 PM 80.6 °F 46.4 °F 30% 30.15 in - West 4.6 mph - N/A   Clear
1:30 PM 82.4 °F 48.2 °F 30% 30.15 in - Variable 4.6 mph - N/A   Clear
2:00 PM 82.4 °F 46.4 °F 28% 30.12 in - Variable 5.8 mph - N/A   Clear
2:30 PM 84.2 °F 46.4 °F 27% 30.12 in - WNW 5.8 mph - N/A   Clear
3:00 PM 84 °F 45 °F 16% 30.03 in 6 mi NW 6.9 mph - -   Clear
3:00 PM 84.2 °F 46.4 °F 27% 30.12 in - West 8.1 mph - N/A   Clear
3:30 PM 84.2 °F 42.8 °F 23% 30.09 in 6.2 mi West 6.9 mph - N/A   Scattered Clouds
4:00 PM 84.2 °F 42.8 °F 23% 30.09 in 6.2 mi NW 5.8 mph - N/A   Scattered Clouds
4:30 PM 86.0 °F 42.8 °F 22% 30.09 in 6.2 mi NW 5.8 mph - N/A   Scattered Clouds
5:00 PM 86.0 °F 42.8 °F 22% 30.09 in 6.2 mi NNW 5.8 mph - N/A   Scattered Clouds
5:30 PM 84.2 °F 42.8 °F 23% 30.09 in 6.2 mi NW 6.9 mph - N/A   Scattered Clouds
6:00 PM 83 °F 43 °F 15% 30.01 in 6 mi WNW 8.1 mph - -   Clear
6:00 PM 84.2 °F 42.8 °F 23% 30.09 in - WNW 8.1 mph - N/A   Clear
6:30 PM 82.4 °F 48.2 °F 30% 30.09 in - WNW 8.1 mph - N/A   Clear
7:00 PM 77.0 °F 55.4 °F 47% 30.09 in - North 10.4 mph - N/A   Clear
7:30 PM 75.2 °F 59.0 °F 57% 30.09 in - North 8.1 mph - N/A   Clear
8:00 PM 73.4 °F 57.2 °F 57% 30.12 in - NNE 5.8 mph - N/A   Clear
8:30 PM 71.6 °F 57.2 °F 60% 30.12 in - NE 5.8 mph - N/A   Clear
9:00 PM 70 °F 57 °F 55% 30.09 in 6 mi NE 1.2 mph - -   Clear
9:00 PM 69.8 °F 57.2 °F 64% 30.15 in - NNE 3.5 mph - N/A   Clear
9:30 PM 69.8 °F 57.2 °F 64% 30.15 in - Calm Calm - N/A   Clear
10:00 PM 68.0 °F 59.0 °F 73% 30.15 in - Calm Calm - N/A   Clear
10:30 PM 66.2 °F 57.2 °F 73% 30.15 in - West 1.2 mph - N/A   Clear
11:00 PM 64.4 °F 57.2 °F 77% 30.15 in 6.2 mi Calm Calm - N/A   Unknown
11:30 PM 64.4 °F 57.2 °F 77% 30.15 in - West 1.2 mph - N/A   Clear